TimeCST,TemperatureF,Dew PointF,Humidity,Sea Level PressureIn,VisibilityMPH,Wind Direction,Wind SpeedMPH,Gust SpeedMPH,PrecipitationIn,Events,Conditions,WindDirDegrees,DateUTC
12:04 AM,35.6,28.4,75,29.90,10.0,West,16.1,23.0,N/A,,Mostly Cloudy,280,2012-12-10 06:04:00
12:54 AM,32.0,24.1,73,29.91,10.0,WNW,18.4,24.2,N/A,,Overcast,300,2012-12-10 06:54:00
1:54 AM,30.9,23.0,72,29.93,10.0,WNW,17.3,-,N/A,,Overcast,300,2012-12-10 07:54:00
2:54 AM,28.9,21.9,75,29.92,10.0,West,17.3,-,N/A,,Overcast,280,2012-12-10 08:54:00
3:54 AM,28.0,21.0,75,29.91,10.0,WNW,13.8,-,N/A,,Overcast,300,2012-12-10 09:54:00
4:54 AM,28.0,21.0,75,29.90,10.0,WNW,17.3,-,N/A,,Overcast,300,2012-12-10 10:54:00
5:54 AM,27.0,19.0,72,29.92,10.0,NW,18.4,-,N/A,,Overcast,310,2012-12-10 11:54:00
6:54 AM,27.0,19.0,72,29.95,10.0,WNW,11.5,20.7,N/A,,Overcast,300,2012-12-10 12:54:00
7:54 AM,26.1,19.0,75,29.96,10.0,WNW,15.0,-,N/A,,Overcast,300,2012-12-10 13:54:00
8:54 AM,26.1,19.0,75,29.98,10.0,WNW,16.1,23.0,N/A,,Overcast,300,2012-12-10 14:54:00
9:54 AM,27.0,19.0,72,29.99,10.0,WNW,12.7,-,N/A,,Overcast,290,2012-12-10 15:54:00
10:54 AM,27.0,19.9,75,29.99,10.0,WNW,11.5,-,N/A,,Overcast,300,2012-12-10 16:54:00
12:32 PM,28.4,19.4,69,29.95,10.0,WNW,12.7,-,N/A,,Overcast,300,2012-12-10 18:32:00
12:54 PM,28.0,19.9,72,29.95,10.0,WNW,12.7,-,N/A,,Overcast,290,2012-12-10 18:54:00
1:54 PM,30.0,19.9,66,29.95,10.0,WNW,12.7,-,N/A,,Overcast,290,2012-12-10 19:54:00
2:54 PM,30.0,19.9,66,29.97,10.0,WNW,13.8,-,N/A,,Overcast,290,2012-12-10 20:54:00
3:12 PM,30.2,21.2,69,29.96,10.0,WNW,9.2,-,N/A,,Overcast,290,2012-12-10 21:12:00
3:54 PM,30.0,21.0,69,29.99,10.0,WNW,9.2,-,N/A,,Overcast,290,2012-12-10 21:54:00
4:54 PM,30.9,19.9,64,30.00,10.0,WNW,8.1,-,N/A,,Overcast,300,2012-12-10 22:54:00
5:54 PM,30.9,21.0,67,30.03,10.0,WNW,10.4,-,N/A,,Overcast,290,2012-12-10 23:54:00
6:09 PM,30.2,21.2,69,30.02,10.0,West,10.4,-,N/A,,Overcast,280,2012-12-11 00:09:00
6:54 PM,30.9,21.9,69,30.05,10.0,West,5.8,-,N/A,,Overcast,280,2012-12-11 00:54:00
7:54 PM,30.9,21.0,67,30.05,10.0,West,5.8,-,N/A,,Overcast,270,2012-12-11 01:54:00
8:54 PM,30.0,21.0,69,30.06,10.0,West,8.1,-,N/A,,Overcast,270,2012-12-11 02:54:00
9:54 PM,28.9,21.0,72,30.07,10.0,West,9.2,-,N/A,,Mostly Cloudy,270,2012-12-11 03:54:00
10:54 PM,28.0,19.9,72,30.07,10.0,West,8.1,-,N/A,,Clear,280,2012-12-11 04:54:00
11:54 PM,27.0,19.9,75,30.09,10.0,WNW,10.4,-,N/A,,Clear,290,2012-12-11 05:54:00